Weather History for LICA - November, 2012

Change the Weather History Date:

Tuesday, November 27, 2012

  Actual Average Record
Temperature  
Mean Temperature 56 °F -  
Max Temperature 68 °F 58 °F 69 °F (2006)
Min Temperature 44 °F 44 °F 37 °F (2004)
Degree Days  
Heating Degree Days 9    
Growing Degree Days 6 (Base 50)    
Moisture  
Dew Point 49 °F    
Average Humidity 75    
Maximum Humidity 93    
Minimum Humidity 46    
Precipitation  
Precipitation 0.00 in - - ()
Sea Level Pressure  
Sea Level Pressure 29.97 in    
Wind  
Wind Speed 7 mph ()    
Max Wind Speed 14 mph    
Max Gust Speed -    
Visibility 6.2 miles    
Events      
Averages and records for this station are not official NWS values.
T = Trace of Precipitation, MM = Missing Value Source: Averaged Metar Reports

Daily Weather History Graph

Daily Weather History Graph

Search for Another Location

Airport or City:

Trip Planner

Search our weather history database for the weather conditions in past years. The results will help you decide how hot, cold, wet, or windy it might be!

Date:

Astronomy

Nov. 27, 2012 Rise Set
Actual Time 6:50 AM CET 4:34 PM CET
Civil Twilight 6:21 AM CET 5:03 PM CET
Nautical Twilight 5:48 AM CET 5:36 PM CET
Astronomical Twilight 5:16 AM CET 6:08 PM CET
Moon 3:53 PM CET 5:40 AM CET
Length of Visible Light 10h 42m
Length of Day
9h 43m
Waxing Gibbous, 99% of the Moon is Illuminated
Nov 27
Waxing Gibbous
Nov 28
Full
Dec 6
Last Quarter
Dec 13
New
Dec 20
First Quarter

Hourly Weather History & Observations

Time (CET) Temp. Windchill Dew Point Humidity Pressure Visibility Wind Dir Wind Speed Gust Speed Precip Events Conditions
12:50 AM 46.4 °F 42.9 °F 44.6 °F 93% 30.06 in - East 6.9 mph - N/A   Clear
1:50 AM 46.4 °F 42.4 °F 44.6 °F 93% 30.06 in - East 8.1 mph - N/A   Clear
2:50 AM 46.4 °F 42.4 °F 44.6 °F 93% 30.04 in - East 8.1 mph - N/A   Clear
3:50 AM 46.4 °F 42.4 °F 44.6 °F 93% 30.04 in - East 8.1 mph - N/A   Clear
4:50 AM 46.4 °F 42.4 °F 44.6 °F 93% 30.01 in - East 8.1 mph - N/A   Clear
5:50 AM 44.6 °F 41.4 °F 42.8 °F 93% 29.98 in - East 5.8 mph - N/A   Clear
6:50 AM 46.4 °F 42.4 °F 42.8 °F 87% 30.01 in - East 8.1 mph - N/A   Clear
7:50 AM 48.2 °F - 46.4 °F 93% 30.01 in - East 6.9 mph - N/A   Clear
8:50 AM 55.4 °F - 50.0 °F 82% 30.04 in - East 6.9 mph - N/A   Clear
9:50 AM 62.6 °F - 51.8 °F 68% 30.01 in - East 8.1 mph - N/A   Clear
10:50 AM 66.2 °F - 48.2 °F 52% 30.01 in - East 5.8 mph - N/A   Clear
11:50 AM 68.0 °F - 46.4 °F 46% 29.98 in - East 5.8 mph - N/A   Clear
12:50 PM 68.0 °F - 46.4 °F 46% 29.95 in - East 4.6 mph - N/A   Clear
1:50 PM 68.0 °F - 46.4 °F 46% 29.95 in - East 6.9 mph - N/A   Clear
2:50 PM 66.2 °F - 51.8 °F 60% 29.92 in - East 8.1 mph - N/A   Clear
3:50 PM 64.4 °F - 51.8 °F 64% 29.92 in 6.2 mi East 10.4 mph - N/A   Scattered Clouds
4:50 PM 62.6 °F - 51.8 °F 68% 29.92 in 6.2 mi ENE 9.2 mph - N/A   Scattered Clouds
5:50 PM 60.8 °F - 51.8 °F 72% 29.92 in 6.2 mi ENE 10.4 mph - N/A   Scattered Clouds
6:50 PM 59.0 °F - 51.8 °F 77% 29.92 in 6.2 mi ENE 10.4 mph - N/A   Scattered Clouds
7:50 PM 59.0 °F - 50.0 °F 72% 29.92 in 6.2 mi ENE 12.7 mph - N/A   Scattered Clouds
8:50 PM 59.0 °F - 51.8 °F 77% 29.89 in 6.2 mi East 13.8 mph - N/A   Scattered Clouds
9:50 PM 60.8 °F - 51.8 °F 72% 29.89 in - ENE 11.5 mph - N/A   Clear
10:50 PM 60.8 °F - 53.6 °F 77% 29.89 in - ENE 10.4 mph - N/A   Clear
11:50 PM 60.8 °F - 55.4 °F 82% 29.89 in 6.2 mi East 10.4 mph - N/A   Scattered Clouds